{"data":{"norad_id":68744,"intl_designator":"2026-082S","name":"STARLINK-37344","alt_names":[],"object_type":"PAYLOAD","status":"ACTIVE","operator":null,"country":"US","launch_date":"2026-04-15","launch_site_code":"AFWTR","launch_vehicle":null,"mission":null,"orbit_class":"UNKNOWN","rcs_meters":null,"size_class":null,"mass_kg":null,"dimensions":null,"purposes":["comms"],"wikipedia_slug":null,"has_3d_model":false,"image_url":null,"decayed_at":null,"tle_current":{"epoch":"2026-09-20T02:04:49.096704Z","epoch_age_seconds":77028,"freshness":"FRESH","line1":"1 68744U 26082S   26263.08667936  .00017718  00000+0  55001-3 0  9998","line2":"2 68744  97.2839 125.2685 0001725  81.3592 278.7846 15.33435627 24244","mean_motion":15.33435627,"eccentricity":0.0001725,"inclination_deg":97.2839,"raan_deg":125.2685,"arg_perigee_deg":81.3592,"mean_anomaly_deg":278.7846,"bstar":0.00055001,"rev_number":2424,"period_min":93.906778650839,"perigee_km":464.39052243301,"apogee_km":466.75160171442,"semimajor_km":6843.7080620737,"source":"CELESTRAK","updated_at":"2026-09-20T09:00:43.994327Z"}}}